Regional Weather Roundup
Issued by NWS

Home | Current Version | Previous Version | Text Only | Print | Product List | Glossary On
Versions: 1 2 3 4 5 6 7 8 9 10 11 12 13 14 15 16 17 18 19 20 21 22 23 24 25 26 27 28 29 30 31 32 33 34 35 36 37 38 39 40 41 42 43 44 45 46 47 48 49 50
000
ASUS43 KTOP 181308
RWRKS

WEATHER ROUNDUP FOR KANSAS
NATIONAL WEATHER SERVICE GOODLAND KS
800 AM CDT WED OCT 18 2017

NOTE:  "FAIR" INDICATES FEW OR NO CLOUDS BELOW 12,000 FEET WITH NO
SIGNIFICANT WEATHER AND/OR OBSTRUCTIONS TO VISIBILITY.

KSZ001>006-013>018-027>032-041>047-181400-
NORTHWEST KANSAS

CITY           SKY/WX    TMP DP  RH WIND       PRES   REMARKS
GOODLAND       CLOUDY    52  32  46 W10       29.98R
HAYS           CLOUDY    39  37  92 S3        29.96S
HILL CITY      CLOUDY    38  37  97 NW5       29.95R
RUSSELL        CLOUDY    43  43 100 S9        29.95S
$$

KSZ061>065-074>080-084>089-181400-
SOUTHWEST KANSAS

CITY           SKY/WX    TMP DP  RH WIND       PRES   REMARKS
DODGE CITY     CLOUDY    44  38  79 SW9       29.97S
ELKHART          N/A     46  34  63 W9          N/A
GARDEN CITY    CLOUDY    35  33  92 SW6       29.98R
GREAT BEND     CLOUDY    41  39  93 S5        29.96S
LIBERAL        CLOUDY    39  36  89 SW5       29.99S
PRATT          CLEAR     44  40  88 S7        29.97S
$$

KSZ066>073-081>083-090>101-181400-
SOUTHEAST KANSAS

CITY           SKY/WX    TMP DP  RH WIND       PRES   REMARKS
CHANUTE        CLEAR     48  43  82 S8        30.09S
COFFEYVILLE    CLEAR     48  44  86 S5        30.09S
HUTCHINSON     CLEAR     48  45  89 S8        29.99S
MEDICINE LODGE   N/A     47  42  83 MISG      29.98S
NEWTON         CLEAR     49  43  80 S9        30.01S
PARSONS        CLEAR     51  43  74 S7        30.10S
WICHITA INTL   PTCLDY    53  44  71 S15       30.00S
WICHITA JABRA  CLEAR     50  44  80 S9        30.01S
WICHITA MCCONL CLEAR     50  42  75 S10       30.01S
WINFIELD       CLEAR     53  44  71 S16       30.03F
$$

KSZ007>012-019>026-033>040-048>060-102>105-181400-
NORTHEAST KANSAS

CITY           SKY/WX    TMP DP  RH WIND       PRES   REMARKS
CONCORDIA      CLEAR     52  45  77 S17G25    29.95S
EMPORIA        CLEAR     50  42  74 S21       30.01F
LAWRENCE       CLEAR     49  45  86 E6        30.05S
MANHATTAN      CLEAR     43  42  97 CALM      30.00S
MARYSVILLE     CLEAR     46  45  93 S7        29.98S
OLATHE IND     CLEAR     48  44  86 S12       30.06F
OLATHE EXE     CLEAR     50  43  77 S10       30.07S
SALINA         CLEAR     50  45  83 S6        29.99R
TOPEKA BILLARD CLEAR     54  45  71 S7        30.02S
TOPEKA FORBES  CLEAR     54  45  71 S14       30.02S
$$



USA.gov is the U.S. government's official web portal to all federal, state and local government web resources and services.